Terminal Aerodrome Forecast
Issued by NWS

Home | Current Version | Previous Version | Text Only | Print | Product List | Glossary On
Versions: 1 2 3 4 5 6 7 8 9 10 11 12 13 14 15 16 17 18
000
FTUS42 KTAE 290707 AAA
TAFABY
TAF AMD
KABY 290707Z 2907/3006 00000KT P6SM BKN050
     FM291400 16008KT P6SM BKN025
     FM291600 17010G15KT P6SM BKN050=

USA.gov is the U.S. government's official web portal to all federal, state and local government web resources and services.